Time,TemperatureF,DewpointF,PressureIn,WindDirection,WindDirectionDegrees,WindSpeedMPH,WindSpeedGustMPH,Humidity,HourlyPrecipIn,Conditions,Clouds,dailyrainin,SoftwareType,DateUTC
2013-09-30 00:00:00,78.0,-99.9,29.93,ENE,60,2.0,3.0,-999,-99.99,,,-99.99,,2013-09-30 05:00:00,
2013-09-30 00:23:00,78.0,-99.9,29.93,ENE,60,2.0,3.0,-999,-99.99,,,-99.99,,2013-09-30 05:23:00,
2013-09-30 00:34:00,78.0,-99.9,29.93,ENE,60,2.0,3.0,-999,-99.99,,,-99.99,,2013-09-30 05:34:00,
2013-09-30 00:43:00,78.0,-99.9,29.93,ENE,60,2.0,3.0,-999,-99.99,,,-99.99,,2013-09-30 05:43:00,
2013-09-30 00:52:00,78.0,-99.9,29.93,ENE,60,2.0,3.0,-999,-99.99,,,-99.99,,2013-09-30 05:52:00,
2013-09-30 01:00:00,78.0,-99.9,29.91,NW,310,2.0,2.0,-999,-99.99,,,-99.99,,2013-09-30 06:00:00,
2013-09-30 01:42:00,78.0,-99.9,29.91,NW,310,2.0,2.0,-999,-99.99,,,-99.99,,2013-09-30 06:42:00,
2013-09-30 01:52:00,78.0,-99.9,29.91,NW,310,2.0,2.0,-999,-99.99,,,-99.99,,2013-09-30 06:52:00,
2013-09-30 02:00:00,78.0,-99.9,29.90,West,270,2.0,3.0,-999,-99.99,,,-99.99,,2013-09-30 07:00:00,
2013-09-30 02:42:00,78.0,-99.9,29.90,West,270,2.0,3.0,-999,-99.99,,,-99.99,,2013-09-30 07:42:00,
2013-09-30 02:53:00,78.0,-99.9,29.90,West,270,2.0,3.0,-999,-99.99,,,-99.99,,2013-09-30 07:53:00,
2013-09-30 03:00:00,79.0,-99.9,29.89,SW,220,8.0,9.0,-999,-99.99,,,-99.99,,2013-09-30 08:00:00,
2013-09-30 03:42:00,79.0,-99.9,29.89,SW,220,8.0,9.0,-999,-99.99,,,-99.99,,2013-09-30 08:42:00,
2013-09-30 03:52:00,79.0,-99.9,29.89,SW,220,8.0,9.0,-999,-99.99,,,-99.99,,2013-09-30 08:52:00,
2013-09-30 04:00:00,79.0,-99.9,29.87,WSW,240,5.0,5.0,-999,-99.99,,,-99.99,,2013-09-30 09:00:00,
2013-09-30 04:42:00,79.0,-99.9,29.87,WSW,240,5.0,5.0,-999,-99.99,,,-99.99,,2013-09-30 09:42:00,
2013-09-30 04:54:00,79.0,-99.9,29.87,WSW,240,5.0,5.0,-999,-99.99,,,-99.99,,2013-09-30 09:54:00,
2013-09-30 05:00:00,79.0,-99.9,29.87,WSW,250,6.0,6.0,-999,-99.99,,,-99.99,,2013-09-30 10:00:00,
2013-09-30 05:43:00,79.0,-99.9,29.87,WSW,250,6.0,6.0,-999,-99.99,,,-99.99,,2013-09-30 10:43:00,
2013-09-30 05:53:00,79.0,-99.9,29.87,WSW,250,6.0,6.0,-999,-99.99,,,-99.99,,2013-09-30 10:53:00,
2013-09-30 06:00:00,77.0,-99.9,29.88,NNW,340,7.0,9.0,-999,-99.99,,,-99.99,,2013-09-30 11:00:00,
2013-09-30 06:43:00,77.0,-99.9,29.88,NNW,340,7.0,9.0,-999,-99.99,,,-99.99,,2013-09-30 11:43:00,
2013-09-30 06:52:00,77.0,-99.9,29.88,NNW,340,7.0,9.0,-999,-99.99,,,-99.99,,2013-09-30 11:52:00,
2013-09-30 07:00:00,76.0,-99.9,29.88,NNW,340,6.0,8.0,-999,-99.99,,,-99.99,,2013-09-30 12:00:00,
2013-09-30 07:22:00,76.0,-99.9,29.88,NNW,340,6.0,8.0,-999,-99.99,,,-99.99,,2013-09-30 12:22:00,
2013-09-30 07:32:00,76.0,-99.9,29.88,NNW,340,6.0,8.0,-999,-99.99,,,-99.99,,2013-09-30 12:32:00,
2013-09-30 07:42:00,76.0,-99.9,29.88,NNW,340,6.0,8.0,-999,-99.99,,,-99.99,,2013-09-30 12:42:00,
2013-09-30 07:52:00,76.0,-99.9,29.88,NNW,340,6.0,8.0,-999,-99.99,,,-99.99,,2013-09-30 12:52:00,
2013-09-30 08:00:00,76.0,-99.9,29.88,North,360,8.0,9.0,-999,-99.99,,,-99.99,,2013-09-30 13:00:00,
2013-09-30 08:42:00,76.0,-99.9,29.88,North,360,8.0,9.0,-999,-99.99,,,-99.99,,2013-09-30 13:42:00,
2013-09-30 08:52:00,76.0,-99.9,29.88,North,360,8.0,9.0,-999,-99.99,,,-99.99,,2013-09-30 13:52:00,
2013-09-30 09:00:00,76.0,-99.9,29.89,North,360,11.0,13.0,-999,-99.99,,,-99.99,,2013-09-30 14:00:00,
2013-09-30 09:22:00,76.0,-99.9,29.89,North,360,11.0,13.0,-999,-99.99,,,-99.99,,2013-09-30 14:22:00,
2013-09-30 09:32:00,76.0,-99.9,29.89,North,360,11.0,13.0,-999,-99.99,,,-99.99,,2013-09-30 14:32:00,
2013-09-30 09:42:00,76.0,-99.9,29.89,North,360,11.0,13.0,-999,-99.99,,,-99.99,,2013-09-30 14:42:00,
2013-09-30 09:53:00,76.0,-99.9,29.89,North,360,11.0,13.0,-999,-99.99,,,-99.99,,2013-09-30 14:53:00,
2013-09-30 10:00:00,77.0,-99.9,29.90,NNE,20,10.0,11.0,-999,-99.99,,,-99.99,,2013-09-30 15:00:00,
2013-09-30 10:23:00,77.0,-99.9,29.90,NNE,20,10.0,11.0,-999,-99.99,,,-99.99,,2013-09-30 15:23:00,
2013-09-30 10:34:00,77.0,-99.9,29.90,NNE,20,10.0,11.0,-999,-99.99,,,-99.99,,2013-09-30 15:34:00,
2013-09-30 10:45:00,77.0,-99.9,29.90,NNE,20,10.0,11.0,-999,-99.99,,,-99.99,,2013-09-30 15:45:00,
2013-09-30 10:54:00,77.0,-99.9,29.90,NNE,20,10.0,11.0,-999,-99.99,,,-99.99,,2013-09-30 15:54:00,
2013-09-30 11:00:00,78.0,-99.9,29.90,North,10,8.0,9.0,-999,-99.99,,,-99.99,,2013-09-30 16:00:00,
2013-09-30 11:24:00,78.0,-99.9,29.90,North,10,8.0,9.0,-999,-99.99,,,-99.99,,2013-09-30 16:24:00,
2013-09-30 11:34:00,78.0,-99.9,29.90,North,10,8.0,9.0,-999,-99.99,,,-99.99,,2013-09-30 16:34:00,
2013-09-30 11:44:00,78.0,-99.9,29.90,North,10,8.0,9.0,-999,-99.99,,,-99.99,,2013-09-30 16:44:00,
2013-09-30 11:54:00,78.0,-99.9,29.90,North,10,8.0,9.0,-999,-99.99,,,-99.99,,2013-09-30 16:54:00,
2013-09-30 12:00:00,79.0,-99.9,29.90,NE,50,10.0,11.0,-999,-99.99,,,-99.99,,2013-09-30 17:00:00,
2013-09-30 12:43:00,79.0,-99.9,29.90,NE,50,10.0,11.0,-999,-99.99,,,-99.99,,2013-09-30 17:43:00,
2013-09-30 12:53:00,79.0,-99.9,29.90,NE,50,10.0,11.0,-999,-99.99,,,-99.99,,2013-09-30 17:53:00,
2013-09-30 13:00:00,79.0,-99.9,29.88,NE,50,9.0,10.0,-999,-99.99,,,-99.99,,2013-09-30 18:00:00,
2013-09-30 13:42:00,79.0,-99.9,29.88,NE,50,9.0,10.0,-999,-99.99,,,-99.99,,2013-09-30 18:42:00,
2013-09-30 13:54:00,79.0,-99.9,29.88,NE,50,9.0,10.0,-999,-99.99,,,-99.99,,2013-09-30 18:54:00,
2013-09-30 14:00:00,80.0,-99.9,29.86,ESE,110,9.0,10.0,-999,-99.99,,,-99.99,,2013-09-30 19:00:00,
2013-09-30 14:42:00,80.0,-99.9,29.86,ESE,110,9.0,10.0,-999,-99.99,,,-99.99,,2013-09-30 19:42:00,
2013-09-30 14:53:00,80.0,-99.9,29.86,ESE,110,9.0,10.0,-999,-99.99,,,-99.99,,2013-09-30 19:53:00,
2013-09-30 15:00:00,80.0,-99.9,29.84,East,100,7.0,8.0,-999,-99.99,,,-99.99,,2013-09-30 20:00:00,
2013-09-30 15:43:00,80.0,-99.9,29.84,East,100,7.0,8.0,-999,-99.99,,,-99.99,,2013-09-30 20:43:00,
2013-09-30 15:53:00,80.0,-99.9,29.84,East,100,7.0,8.0,-999,-99.99,,,-99.99,,2013-09-30 20:53:00,
2013-09-30 16:00:00,81.0,-99.9,29.82,ESE,120,8.0,10.0,-999,-99.99,,,-99.99,,2013-09-30 21:00:00,
2013-09-30 16:23:00,81.0,-99.9,29.82,ESE,120,8.0,10.0,-999,-99.99,,,-99.99,,2013-09-30 21:23:00,
2013-09-30 16:34:00,81.0,-99.9,29.82,ESE,120,8.0,10.0,-999,-99.99,,,-99.99,,2013-09-30 21:34:00,
2013-09-30 16:44:00,81.0,-99.9,29.82,ESE,120,8.0,10.0,-999,-99.99,,,-99.99,,2013-09-30 21:44:00,
2013-09-30 16:54:00,81.0,-99.9,29.82,ESE,120,8.0,10.0,-999,-99.99,,,-99.99,,2013-09-30 21:54:00,
2013-09-30 17:00:00,81.0,-99.9,29.82,ESE,120,14.0,15.0,-999,-99.99,,,-99.99,,2013-09-30 22:00:00,
2013-09-30 17:44:00,81.0,-99.9,29.82,ESE,120,14.0,15.0,-999,-99.99,,,-99.99,,2013-09-30 22:44:00,
2013-09-30 17:54:00,81.0,-99.9,29.82,ESE,120,14.0,15.0,-999,-99.99,,,-99.99,,2013-09-30 22:54:00,
2013-09-30 18:00:00,81.0,-99.9,29.81,ESE,110,11.0,13.0,-999,-99.99,,,-99.99,,2013-09-30 23:00:00,
2013-09-30 18:43:00,81.0,-99.9,29.81,ESE,110,11.0,13.0,-999,-99.99,,,-99.99,,2013-09-30 23:43:00,
2013-09-30 18:54:00,81.0,-99.9,29.81,ESE,110,11.0,13.0,-999,-99.99,,,-99.99,,2013-09-30 23:54:00,
2013-09-30 19:00:00,81.0,-99.9,29.81,SE,130,11.0,13.0,-999,-99.99,,,-99.99,,2013-10-01 00:00:00,
2013-09-30 19:43:00,81.0,-99.9,29.81,SE,130,11.0,13.0,-999,-99.99,,,-99.99,,2013-10-01 00:43:00,
2013-09-30 19:52:00,81.0,-99.9,29.81,SE,130,11.0,13.0,-999,-99.99,,,-99.99,,2013-10-01 00:52:00,
2013-09-30 20:00:00,81.0,-99.9,29.82,SE,130,13.0,13.0,-999,-99.99,,,-99.99,,2013-10-01 01:00:00,
2013-09-30 20:42:00,81.0,-99.9,29.82,SE,130,13.0,13.0,-999,-99.99,,,-99.99,,2013-10-01 01:42:00,
2013-09-30 20:52:00,81.0,-99.9,29.82,SE,130,13.0,13.0,-999,-99.99,,,-99.99,,2013-10-01 01:52:00,
2013-09-30 21:00:00,82.0,-99.9,29.84,SSE,150,13.0,14.0,-999,-99.99,,,-99.99,,2013-10-01 02:00:00,
2013-09-30 21:23:00,82.0,-99.9,29.84,SSE,150,13.0,14.0,-999,-99.99,,,-99.99,,2013-10-01 02:23:00,
2013-09-30 21:33:00,82.0,-99.9,29.84,SSE,150,13.0,14.0,-999,-99.99,,,-99.99,,2013-10-01 02:33:00,
2013-09-30 21:43:00,82.0,-99.9,29.84,SSE,150,13.0,14.0,-999,-99.99,,,-99.99,,2013-10-01 02:43:00,
2013-09-30 21:52:00,82.0,-99.9,29.84,SSE,150,13.0,14.0,-999,-99.99,,,-99.99,,2013-10-01 02:52:00,
2013-09-30 22:00:00,82.0,-99.9,29.85,SSE,160,11.0,13.0,-999,-99.99,,,-99.99,,2013-10-01 03:00:00,
2013-09-30 22:22:00,82.0,-99.9,29.85,SSE,160,11.0,13.0,-999,-99.99,,,-99.99,,2013-10-01 03:22:00,
2013-09-30 22:34:00,82.0,-99.9,29.85,SSE,160,11.0,13.0,-999,-99.99,,,-99.99,,2013-10-01 03:34:00,
2013-09-30 22:44:00,82.0,-99.9,29.85,SSE,160,11.0,13.0,-999,-99.99,,,-99.99,,2013-10-01 03:44:00,
2013-09-30 22:55:00,82.0,-99.9,29.85,SSE,160,11.0,13.0,-999,-99.99,,,-99.99,,2013-10-01 03:55:00,